CZ-4C DEB (48081 NORAD) Tracking and Keplerian Element Data

This shows tracking and keplerian element data for the satellite.

Feedback or suggestion? Click here.




ElementValue
Catalog48081
NameCZ-4C DEB
Epoch Orbit306
Epoch Day110.52114251
Epoch Year2021
RAAN104.1039
Inclination97.7811
Eccentricity0.0042957
Argument of Perigee171.7766
Mean Anonmoly188.4187
Mean Motion15.12593106
Decay Rate0.01775581
L11 48081U 21026C 21110.52114251 .01775581 00000-0 91193-1 0 9996
L22 48081 97.7811 104.1039 0042957 171.7766 188.4187 15.12593106 3065

Live tracking and technical data element details for CZ-4C DEB (NORAD 48081). CZ-4C DEB can be tracked NOW for your location showing map with azimuth and elevation plus other details from your city location.

Track the satellite on the map from your city or location and see movement details for azimuth, elevation, latitude, longitude, range, height, and movement on the map or in text.







IsCatalogInMostPopularTable: catalog: 48081, numindb: 40
Update: records affected: 1



GetName: 48081 CZ-4C DEB

Hit Count: updated at: Mon, 21 Jun 2021 03:40:28 GMT